Location: ??
(35.5052°N, 139.7262°E)
Time: 03:43:43
(UTC+00:00)

Cosmos 2369 Rocket - Pass Details

Date: 20 June 2021
Orbit: 827 x 854 km, 71.0° (Epoch: 26 July)

Event Time Altitude Azimuth Distance (km) Brightness Sun altitude
Rises 14:04:00 0° 356° (N) 3,428 6.5 -30.3°
Reaches altitude 10° 14:07:41 10° 20° (NNE) 2,488 5.3 -30.5°
Maximum altitude 14:10:48 15° 53° (NE) 2,158 4.6 -30.6°
Enters shadow 14:13:02 12° 79° (ENE) 2,327 4.5 -30.6°
